"read_dt","SO2 (ppb)","flags","PMT voltage (V)","lamp voltage (V)","lamp intensity (Hz)","internal temp (C)","react chamber temp (C)","sample flow (l/min)","pres (mmHg)","SO2 bkg (ppb)","SO2 coefficient"
2014-09-17 00:00:00,1794E-3,5C000000,-0724,0829,12344,026.1,045.4,0.477,728.8,01.19,0.508
2014-09-17 00:01:00,1838E-3,5C000000,-0724,0828,12334,026.1,045.4,0.477,728.8,01.19,0.508
2014-09-17 00:02:00,1935E-3,5C000000,-0724,0830,10138,026.1,045.4,0.477,728.8,01.19,0.508
2014-09-17 00:03:00,1846E-3,5C000000,-0724,0835,12854,026.1,045.4,0.477,728.8,01.19,0.508
2014-09-17 00:04:00,1737E-3,5C000000,-0724,0827,12326,026.1,045.4,0.477,728.9,01.19,0.508
2014-09-17 00:05:00,1769E-3,5C000000,-0724,0827,12214,026.1,045.4,0.477,728.9,01.19,0.508
2014-09-17 00:06:00,1808E-3,5C000000,-0724,0828,12368,026.1,045.4,0.477,728.8,01.19,0.508
2014-09-17 00:07:00,1807E-3,5C000000,-0724,0830,12567,026.2,045.4,0.477,728.9,01.19,0.508
2014-09-17 00:08:00,1714E-3,5C000000,-0724,0839,10301,026.2,045.4,0.477,728.9,01.19,0.508
2014-09-17 00:09:00,1817E-3,5C000000,-0724,0831,12615,026.2,045.5,0.477,728.9,01.19,0.508
2014-09-17 00:10:00,1700E-3,5C000000,-0724,0833,11342,026.2,045.4,0.477,728.9,01.19,0.508
2014-09-17 00:11:00,1744E-3,5C000000,-0724,0827,12239,026.2,045.4,0.477,728.9,01.19,0.508
2014-09-17 00:12:00,1931E-3,5C000000,-0724,0833,8875,026.2,045.4,0.477,729.0,01.19,0.508
2014-09-17 00:13:00,1739E-3,5C000010,-0724,0839,11759,026.2,045.5,0.477,728.9,01.19,0.508
2014-09-17 00:14:00,1678E-3,5C000000,-0724,0835,11454,026.2,045.4,0.477,729.0,01.19,0.508
2014-09-17 00:15:00,1565E-3,5C000000,-0724,0838,10539,026.2,045.4,0.477,728.9,01.19,0.508
2014-09-17 00:16:00,1625E-3,5C000000,-0724,0845,10480,026.2,045.4,0.477,728.9,01.19,0.508
2014-09-17 00:17:00,1773E-3,5C000000,-0724,0833,11334,026.1,045.4,0.477,729.0,01.19,0.508
2014-09-17 00:18:00,1853E-3,5C000000,-0724,0833,12564,026.2,045.4,0.477,729.0,01.19,0.508
2014-09-17 00:19:00,1727E-3,5C000000,-0724,0837,12762,026.2,045.4,0.477,729.0,01.19,0.508
2014-09-17 00:20:00,1813E-3,5C000000,-0724,0836,11477,026.1,045.4,0.477,729.0,01.19,0.508
2014-09-17 00:21:00,1788E-3,5C000000,-0724,0829,12583,026.1,045.4,0.477,729.0,01.19,0.508
2014-09-17 00:22:00,1699E-3,5C000000,-0724,0833,11450,026.1,045.4,0.477,729.0,01.19,0.508
2014-09-17 00:23:00,1612E-3,5C000000,-0724,0835,11475,026.1,045.4,0.477,729.0,01.19,0.508
2014-09-17 00:24:00,1782E-3,5C000000,-0724,0830,11272,026.1,045.4,0.477,729.1,01.19,0.508
2014-09-17 00:25:00,1706E-3,5C000010,-0724,0835,9013,026.1,045.4,0.477,729.1,01.19,0.508
2014-09-17 00:26:00,1662E-3,5C000000,-0724,0834,8976,026.1,045.4,0.477,729.1,01.19,0.508
2014-09-17 00:27:00,1678E-3,5C000000,-0724,0835,12713,026.1,045.4,0.477,729.1,01.19,0.508
2014-09-17 00:28:00,1686E-3,5C000000,-0724,0839,11690,026.1,045.4,0.477,729.0,01.19,0.508
2014-09-17 00:29:00,1637E-3,5C000000,-0724,0836,12543,026.1,045.4,0.477,729.2,01.19,0.508
2014-09-17 00:30:00,1681E-3,5C000000,-0724,0831,12347,026.1,045.4,0.477,729.1,01.19,0.508
2014-09-17 00:31:00,1660E-3,5C000000,-0724,0834,12626,026.1,045.4,0.477,729.2,01.19,0.508
2014-09-17 00:32:00,1554E-3,5C000000,-0724,0835,12868,026.1,045.5,0.477,729.3,01.19,0.508
2014-09-17 00:33:00,1626E-3,5C000010,-0724,0833,13224,026.0,045.4,0.478,729.2,01.19,0.508
2014-09-17 00:34:00,1571E-3,5C000000,-0724,0833,12641,026.0,045.4,0.477,729.2,01.19,0.508
2014-09-17 00:35:00,1704E-3,5C000000,-0724,0835,8916,026.0,045.4,0.477,729.2,01.19,0.508
2014-09-17 00:36:00,1805E-3,5C000000,-0724,0838,6595,026.0,045.4,0.477,729.2,01.19,0.508
2014-09-17 00:37:00,1606E-3,5C000000,-0724,0836,12714,026.0,045.4,0.477,729.2,01.19,0.508
2014-09-17 00:38:00,1653E-3,5C000010,-0724,0836,11587,026.0,045.4,0.477,729.0,01.19,0.508
2014-09-17 00:39:00,1716E-3,5C000000,-0724,0840,12818,026.1,045.4,0.477,729.1,01.19,0.508
2014-09-17 00:40:00,1562E-3,5C000000,-0724,0837,10437,026.1,045.4,0.477,729.2,01.19,0.508
2014-09-17 00:41:00,1679E-3,5C000000,-0724,0835,12734,026.1,045.4,0.477,729.2,01.19,0.508
2014-09-17 00:42:00,1756E-3,5C000010,-0724,0833,8996,026.1,045.4,0.477,729.1,01.19,0.508
2014-09-17 00:43:00,1691E-3,5C000000,-0724,0830,12501,026.1,045.4,0.478,729.3,01.19,0.508
2014-09-17 00:44:00,1587E-3,5C000010,-0724,0837,9070,026.1,045.4,0.477,729.3,01.19,0.508
2014-09-17 00:45:00,1635E-3,5C000010,-0724,0839,12863,026.1,045.4,0.477,729.3,01.19,0.508
2014-09-17 00:46:00,1666E-3,5C000000,-0724,0838,11543,026.1,045.4,0.478,729.3,01.19,0.508
2014-09-17 00:47:00,1772E-3,5C000000,-0724,0844,10389,026.1,045.4,0.477,729.4,01.19,0.508
2014-09-17 00:48:00,1586E-3,5C000000,-0724,0835,11382,026.1,045.4,0.477,729.4,01.19,0.508
2014-09-17 00:49:00,1612E-3,5C000010,-0724,0837,13108,026.1,045.4,0.477,729.3,01.19,0.508
2014-09-17 00:50:00,1524E-3,5C000010,-0724,0843,13043,026.1,045.4,0.477,729.3,01.19,0.508
2014-09-17 00:51:00,1790E-3,5C000000,-0724,0830,11426,026.1,045.4,0.477,729.3,01.19,0.508
2014-09-17 00:52:00,1717E-3,5C000000,-0724,0829,12523,026.1,045.4,0.477,729.2,01.19,0.508
2014-09-17 00:53:00,1845E-3,5C000000,-0724,0827,11031,026.1,045.4,0.477,729.3,01.19,0.508
2014-09-17 00:54:00,1754E-3,5C000000,-0724,0830,12398,026.2,045.4,0.477,729.3,01.19,0.508
2014-09-17 00:55:00,1686E-3,5C000000,-0724,0834,8974,026.2,045.4,0.477,729.3,01.19,0.508
2014-09-17 00:56:00,1643E-3,5C000000,-0724,0830,11198,026.2,045.4,0.477,729.4,01.19,0.508
2014-09-17 00:57:00,1737E-3,5C000010,-0724,0836,12804,026.2,045.4,0.477,729.2,01.19,0.508
2014-09-17 00:58:00,1595E-3,5C000000,-0724,0834,11231,026.2,045.4,0.477,729.3,01.19,0.508
2014-09-17 00:59:00,1618E-3,5C000000,-0724,0840,10309,026.2,045.4,0.477,729.2,01.19,0.508
2014-09-17 01:00:00,1771E-3,5C000000,-0724,0844,11655,026.2,045.4,0.477,729.3,01.19,0.508
2014-09-17 01:01:00,1668E-3,5C000000,-0724,0834,12631,026.2,045.4,0.477,729.3,01.19,0.508
2014-09-17 01:02:00,1515E-3,5C000000,-0724,0834,10234,026.2,045.4,0.477,729.3,01.19,0.508
2014-09-17 01:03:00,1614E-3,5C000000,-0724,0832,11408,026.2,045.4,0.477,729.3,01.19,0.508
2014-09-17 01:04:00,1701E-3,5C000000,-0724,0840,11374,026.2,045.4,0.477,729.4,01.19,0.508
2014-09-17 01:05:00,1775E-3,5C000000,-0724,0838,10242,026.1,045.4,0.477,729.3,01.19,0.508
2014-09-17 01:06:00,1734E-3,5C000000,-0724,0838,10392,026.1,045.4,0.477,729.3,01.19,0.508
2014-09-17 01:07:00,1743E-3,5C000010,-0724,0844,13113,026.1,045.4,0.477,729.4,01.19,0.508
2014-09-17 01:08:00,1436E-3,5C000000,-0724,0843,10325,026.1,045.4,0.477,729.4,01.19,0.508
2014-09-17 01:09:00,1679E-3,5C000010,-0724,0844,13034,026.1,045.4,0.477,729.4,01.19,0.508
2014-09-17 01:10:00,1453E-3,5C000010,-0724,0849,12148,026.1,045.4,0.477,729.4,01.19,0.508
2014-09-17 01:11:00,1618E-3,5C000000,-0724,0839,13267,026.1,045.4,0.477,729.3,01.19,0.508
2014-09-17 01:12:00,1454E-3,5C000000,-0724,0845,12681,026.1,045.4,0.477,729.4,01.19,0.508
2014-09-17 01:13:00,1612E-3,5C000000,-0724,0838,8868,026.1,045.4,0.477,729.4,01.19,0.508
2014-09-17 01:14:00,1567E-3,5C000000,-0724,0845,11848,026.1,045.4,0.478,729.3,01.19,0.508
2014-09-17 01:15:00,1587E-3,5C000010,-0724,0847,11087,026.1,045.4,0.477,729.5,01.19,0.508
2014-09-17 01:16:00,1554E-3,5C000000,-0724,0840,12330,026.1,045.4,0.477,729.5,01.19,0.508
2014-09-17 01:17:00,1669E-3,5C000000,-0724,0836,12843,026.1,045.4,0.477,729.5,01.19,0.508
2014-09-17 01:18:00,1664E-3,5C000000,-0724,0829,11069,026.1,045.4,0.478,729.5,01.19,0.508
2014-09-17 01:19:00,1638E-3,5C000010,-0724,0835,7882,026.1,045.4,0.477,729.4,01.19,0.508
2014-09-17 01:20:00,1678E-3,5C000010,-0724,0833,6624,026.2,045.4,0.477,729.5,01.19,0.508
2014-09-17 01:21:00,1485E-3,5C000000,-0724,0828,12411,026.2,045.4,0.477,729.4,01.19,0.508
2014-09-17 01:22:00,1881E-3,5C000000,-0724,0827,12285,026.2,045.4,0.477,729.5,01.19,0.508
2014-09-17 01:23:00,1822E-3,5C000000,-0724,0826,12211,026.2,045.4,0.477,729.5,01.19,0.508
2014-09-17 01:24:00,1706E-3,5C000000,-0724,0827,12227,026.2,045.4,0.477,729.5,01.19,0.508
2014-09-17 01:25:00,1806E-3,5C000000,-0724,0827,12160,026.2,045.4,0.477,729.4,01.19,0.508
2014-09-17 01:26:00,1858E-3,5C000000,-0724,0826,12209,026.2,045.4,0.477,729.5,01.19,0.508
2014-09-17 01:27:00,1775E-3,5C000000,-0724,0826,12346,026.2,045.4,0.477,729.5,01.19,0.508
2014-09-17 01:28:00,1908E-3,5C000000,-0724,0827,12240,026.2,045.4,0.477,729.5,01.19,0.508
2014-09-17 01:29:00,1664E-3,5C000000,-0724,0825,12244,026.2,045.4,0.477,729.6,01.19,0.508
2014-09-17 01:30:00,1812E-3,5C000000,-0724,0826,12248,026.2,045.4,0.477,729.6,01.19,0.508
2014-09-17 01:31:00,1801E-3,5C000000,-0724,0827,12178,026.2,045.4,0.477,729.5,01.19,0.508
2014-09-17 01:32:00,1810E-3,5C000000,-0724,0825,12214,026.2,045.4,0.477,729.6,01.19,0.508
2014-09-17 01:33:00,1781E-3,5C000000,-0724,0826,12337,026.2,045.4,0.477,729.7,01.19,0.508
2014-09-17 01:34:00,1783E-3,5C000000,-0724,0826,12325,026.2,045.4,0.477,729.7,01.19,0.508
2014-09-17 01:35:00,1869E-3,5C000000,-0724,0825,12113,026.2,045.4,0.477,729.7,01.19,0.508
2014-09-17 01:36:00,1934E-3,5C000000,-0724,0825,11049,026.2,045.4,0.477,729.5,01.19,0.508
2014-09-17 01:37:00,1873E-3,5C000000,-0724,0826,12323,026.2,045.4,0.477,729.6,01.19,0.508
2014-09-17 01:38:00,1836E-3,5C000000,-0724,0827,12324,026.2,045.4,0.477,729.7,01.19,0.508
2014-09-17 01:39:00,1785E-3,5C000000,-0724,0825,12233,026.1,045.4,0.477,729.7,01.19,0.508
2014-09-17 01:40:00,1889E-3,5C000000,-0724,0825,12077,026.2,045.4,0.477,729.7,01.19,0.508
2014-09-17 01:41:00,1828E-3,5C000000,-0724,0825,12224,026.2,045.4,0.477,729.7,01.19,0.508
2014-09-17 01:42:00,1693E-3,5C000000,-0724,0826,12201,026.1,045.4,0.477,729.7,01.19,0.508
2014-09-17 01:43:00,1776E-3,5C000000,-0724,0826,12247,026.2,045.4,0.477,729.8,01.19,0.508
2014-09-17 01:44:00,1817E-3,5C000000,-0724,0826,12209,026.1,045.4,0.477,729.7,01.19,0.508
2014-09-17 01:45:00,1760E-3,5C000000,-0724,0826,12303,026.1,045.4,0.478,729.8,01.19,0.508
2014-09-17 01:46:00,1890E-3,5C000000,-0724,0826,12255,026.1,045.4,0.477,729.7,01.19,0.508
2014-09-17 01:47:00,1829E-3,5C000000,-0724,0826,12056,026.1,045.4,0.477,729.8,01.19,0.508
2014-09-17 01:48:00,1869E-3,5C000000,-0724,0829,11374,026.1,045.4,0.477,729.7,01.19,0.508
2014-09-17 01:49:00,1686E-3,5C000000,-0724,0829,10995,026.1,045.4,0.477,729.8,01.19,0.508
2014-09-17 01:50:00,1834E-3,5C000000,-0724,0828,12351,026.1,045.4,0.478,729.8,01.19,0.508
2014-09-17 01:51:00,1827E-3,5C000000,-0724,0826,12264,026.2,045.4,0.477,729.8,01.19,0.508
2014-09-17 01:52:00,1785E-3,5C000000,-0724,0826,12188,026.2,045.4,0.477,729.8,01.19,0.508
2014-09-17 01:53:00,1820E-3,5C000000,-0724,0826,12352,026.2,045.4,0.477,729.8,01.19,0.508
2014-09-17 01:54:00,1804E-3,5C000000,-0724,0826,12307,026.2,045.4,0.477,729.8,01.19,0.508
2014-09-17 01:55:00,1808E-3,5C000000,-0724,0827,12198,026.2,045.4,0.478,729.8,01.19,0.508
2014-09-17 01:56:00,1814E-3,5C000000,-0724,0830,12292,026.2,045.4,0.477,729.8,01.19,0.508
2014-09-17 01:57:00,1622E-3,5C000000,-0724,0827,12309,026.2,045.4,0.477,729.8,01.19,0.508
2014-09-17 01:58:00,1571E-3,5C000000,-0724,0833,12713,026.2,045.4,0.477,729.8,01.19,0.508
2014-09-17 01:59:00,1916E-3,5C000000,-0724,0826,12154,026.2,045.4,0.477,729.8,01.19,0.508
2014-09-17 02:00:00,1931E-3,5C000000,-0724,0829,12327,026.2,045.4,0.477,729.8,01.19,0.508
2014-09-17 02:01:00,1752E-3,5C000000,-0724,0831,12010,026.2,045.4,0.477,729.8,01.19,0.508
2014-09-17 02:02:00,1743E-3,5C000000,-0724,0835,11615,026.2,045.4,0.477,729.8,01.19,0.508
2014-09-17 02:03:00,1767E-3,5C000010,-0724,0832,11529,026.2,045.4,0.477,729.9,01.19,0.508
2014-09-17 02:04:00,1653E-3,5C000000,-0724,0830,12339,026.2,045.4,0.478,729.8,01.19,0.508
2014-09-17 02:05:00,1649E-3,5C000000,-0724,0836,12525,026.2,045.4,0.477,729.8,01.19,0.508
2014-09-17 02:06:00,1713E-3,5C000000,-0724,0832,12369,026.2,045.4,0.477,729.7,01.19,0.508
2014-09-17 02:07:00,1671E-3,5C000000,-0724,0830,12456,026.2,045.4,0.477,729.8,01.19,0.508
2014-09-17 02:08:00,1713E-3,5C000000,-0724,0827,12394,026.2,045.4,0.477,729.7,01.19,0.508
2014-09-17 02:09:00,1810E-3,5C000000,-0724,0827,12209,026.2,045.4,0.477,729.8,01.19,0.508
2014-09-17 02:10:00,1944E-3,5C000000,-0724,0826,12268,026.2,045.4,0.478,729.8,01.19,0.508
2014-09-17 02:11:00,1877E-3,5C000000,-0724,0826,12284,026.2,045.4,0.477,729.8,01.19,0.508
2014-09-17 02:12:00,1852E-3,5C000000,-0724,0826,12162,026.2,045.4,0.477,729.8,01.19,0.508
2014-09-17 02:13:00,1820E-3,5C000000,-0724,0825,12279,026.2,045.4,0.477,729.7,01.19,0.508
2014-09-17 02:14:00,1804E-3,5C000000,-0724,0827,12269,026.1,045.4,0.477,729.7,01.19,0.508
2014-09-17 02:15:00,1773E-3,5C000000,-0724,0827,12182,026.1,045.4,0.478,729.6,01.19,0.508
2014-09-17 02:16:00,1772E-3,5C000000,-0724,0827,12127,026.1,045.4,0.477,729.8,01.19,0.508
2014-09-17 02:17:00,1627E-3,5C000000,-0724,0831,11089,026.1,045.4,0.477,729.8,01.19,0.508
2014-09-17 02:18:00,1752E-3,5C000000,-0724,0828,12239,026.1,045.4,0.477,729.8,01.19,0.508
2014-09-17 02:19:00,1717E-3,5C000000,-0724,0828,12126,026.1,045.4,0.477,729.7,01.19,0.508
2014-09-17 02:20:00,1810E-3,5C000000,-0724,0827,12241,026.1,045.4,0.478,729.6,01.19,0.508
2014-09-17 02:21:00,1747E-3,5C000000,-0724,0829,12337,026.1,045.4,0.477,729.7,01.19,0.508
2014-09-17 02:22:00,1800E-3,5C000000,-0724,0828,12500,026.1,045.4,0.477,729.7,01.19,0.508
2014-09-17 02:23:00,1892E-3,5C000000,-0724,0826,12411,026.1,045.4,0.477,729.6,01.19,0.508
2014-09-17 02:24:00,1907E-3,5C000000,-0724,0828,12364,026.2,045.4,0.477,729.7,01.19,0.508
2014-09-17 02:25:00,1892E-3,5C000000,-0724,0827,12296,026.2,045.4,0.478,729.6,01.19,0.508
2014-09-17 02:26:00,1851E-3,5C000000,-0724,0829,12375,026.2,045.4,0.477,729.7,01.19,0.508
2014-09-17 02:27:00,1819E-3,5C000000,-0724,0827,12039,026.2,045.4,0.477,729.6,01.19,0.508
2014-09-17 02:28:00,1866E-3,5C000000,-0724,0827,12236,026.2,045.4,0.477,729.7,01.19,0.508
2014-09-17 02:29:00,1786E-3,5C000000,-0724,0826,12002,026.2,045.4,0.477,729.6,01.19,0.508
2014-09-17 02:30:00,1889E-3,5C000000,-0724,0825,12004,026.2,045.4,0.477,729.5,01.19,0.508
2014-09-17 02:31:00,1751E-3,5C000000,-0724,0827,12383,026.2,045.4,0.477,729.6,01.19,0.508
2014-09-17 02:32:00,1787E-3,5C000000,-0724,0828,12471,026.2,045.4,0.477,729.8,01.19,0.508
2014-09-17 02:33:00,1720E-3,5C000000,-0724,0826,12421,026.2,045.4,0.477,729.5,01.19,0.508
2014-09-17 02:34:00,1836E-3,5C000000,-0724,0827,12366,026.2,045.4,0.478,729.8,01.19,0.508
2014-09-17 02:35:00,1840E-3,5C000000,-0724,0826,12291,026.2,045.4,0.477,729.5,01.19,0.508
2014-09-17 02:36:00,1935E-3,5C000000,-0724,0826,12124,026.2,045.4,0.477,729.7,01.19,0.508
2014-09-17 02:37:00,1666E-3,5C000000,-0724,0827,12206,026.2,045.4,0.477,729.6,01.19,0.508
2014-09-17 02:38:00,1897E-3,5C000000,-0724,0826,11196,026.2,045.4,0.477,729.7,01.19,0.508
2014-09-17 02:39:00,1851E-3,5C000000,-0724,0826,12220,026.1,045.4,0.477,729.6,01.19,0.508
2014-09-17 02:40:00,1817E-3,5C000000,-0724,0828,12318,026.1,045.5,0.478,729.8,01.19,0.508
2014-09-17 02:41:00,1792E-3,5C000000,-0724,0829,12327,026.1,045.4,0.478,729.8,01.19,0.508
2014-09-17 02:42:00,1694E-3,5C000000,-0724,0827,12334,026.1,045.4,0.477,729.8,01.19,0.508
2014-09-17 02:43:00,1747E-3,5C000000,-0724,0825,12140,026.1,045.4,0.477,729.7,01.19,0.508
2014-09-17 02:44:00,1817E-3,5C000000,-0724,0827,12221,026.1,045.4,0.477,729.7,01.19,0.508
2014-09-17 02:45:00,1853E-3,5C000000,-0724,0828,12212,026.1,045.4,0.477,729.9,01.19,0.508
2014-09-17 02:46:00,1839E-3,5C000000,-0724,0827,12283,026.1,045.4,0.477,729.8,01.19,0.508
2014-09-17 02:47:00,1783E-3,5C000000,-0724,0826,12190,026.1,045.4,0.478,729.9,01.19,0.508
2014-09-17 02:48:00,1790E-3,5C000000,-0724,0826,12165,026.1,045.4,0.477,729.7,01.19,0.508
2014-09-17 02:49:00,1779E-3,5C000000,-0724,0826,12277,026.1,045.4,0.477,729.6,01.19,0.508
2014-09-17 02:50:00,1779E-3,5C000000,-0724,0829,12188,026.1,045.4,0.477,729.7,01.19,0.508
2014-09-17 02:51:00,1677E-3,5C000000,-0724,0826,12391,026.1,045.4,0.478,729.8,01.19,0.508
2014-09-17 02:52:00,1864E-3,5C000000,-0724,0828,11102,026.1,045.4,0.478,729.8,01.19,0.508
2014-09-17 02:53:00,1682E-3,5C000000,-0724,0828,12356,026.2,045.4,0.477,729.7,01.19,0.508
2014-09-17 02:54:00,1813E-3,5C000000,-0724,0827,12165,026.2,045.4,0.477,729.8,01.19,0.508
2014-09-17 02:55:00,1671E-3,5C000000,-0724,0826,12036,026.2,045.4,0.477,729.8,01.19,0.508
2014-09-17 02:56:00,1742E-3,5C000000,-0724,0826,12198,026.2,045.4,0.478,729.8,01.19,0.508
2014-09-17 02:57:00,1791E-3,5C000000,-0724,0827,12389,026.2,045.4,0.477,729.9,01.19,0.508
2014-09-17 02:58:00,1731E-3,5C000000,-0724,0828,12286,026.2,045.4,0.477,729.9,01.19,0.508
2014-09-17 02:59:00,1686E-3,5C000000,-0724,0825,12339,026.2,045.4,0.477,729.7,01.19,0.508
2014-09-17 03:00:00,1774E-3,5C000000,-0724,0826,12259,026.2,045.4,0.477,729.9,01.19,0.508
2014-09-17 03:01:00,1957E-3,5C000000,-0724,0827,12343,026.2,045.4,0.477,729.8,01.19,0.508
2014-09-17 03:02:00,1832E-3,5C000000,-0724,0825,12214,026.2,045.4,0.477,729.9,01.19,0.508
2014-09-17 03:03:00,1949E-3,5C000000,-0724,0827,12249,026.2,045.4,0.477,729.8,01.19,0.508
2014-09-17 03:04:00,1851E-3,5C000000,-0724,0825,12345,026.2,045.4,0.477,729.9,01.19,0.508
2014-09-17 03:05:00,1741E-3,5C000000,-0724,0826,12053,026.2,045.4,0.477,730.0,01.19,0.508
2014-09-17 03:06:00,1950E-3,5C000000,-0724,0826,12379,026.2,045.4,0.478,730.0,01.19,0.508
2014-09-17 03:07:00,1946E-3,5C000000,-0724,0826,12280,026.1,045.4,0.477,729.9,01.19,0.508
2014-09-17 03:08:00,1794E-3,5C000000,-0724,0826,12304,026.1,045.4,0.477,729.9,01.19,0.508
2014-09-17 03:09:00,1869E-3,5C000000,-0724,0826,11974,026.1,045.4,0.477,730.0,01.19,0.508
2014-09-17 03:10:00,1754E-3,5C000000,-0724,0827,12364,026.1,045.4,0.477,730.0,01.19,0.508
2014-09-17 03:11:00,1768E-3,5C000000,-0724,0826,12451,026.1,045.4,0.477,730.1,01.19,0.508
2014-09-17 03:12:00,1790E-3,5C000000,-0724,0826,12240,026.1,045.4,0.478,730.0,01.19,0.508
2014-09-17 03:13:00,1840E-3,5C000000,-0724,0827,12192,026.1,045.4,0.478,730.0,01.19,0.508
2014-09-17 03:14:00,1880E-3,5C000000,-0724,0826,12295,026.1,045.4,0.478,730.1,01.19,0.508
2014-09-17 03:15:00,1866E-3,5C000000,-0724,0826,12125,026.0,045.4,0.477,730.0,01.19,0.508
2014-09-17 03:16:00,1934E-3,5C000000,-0724,0825,12163,026.0,045.4,0.477,730.0,01.19,0.508
2014-09-17 03:17:00,1993E-3,5C000000,-0724,0826,12231,026.0,045.4,0.477,730.1,01.19,0.508
2014-09-17 03:18:00,2000E-3,5C000000,-0724,0826,12300,026.0,045.4,0.478,730.0,01.19,0.508
2014-09-17 03:19:00,1804E-3,5C000000,-0724,0827,12156,026.0,045.4,0.478,730.2,01.19,0.508
2014-09-17 03:20:00,1836E-3,5C000000,-0724,0826,12257,026.0,045.4,0.477,730.2,01.19,0.508
2014-09-17 03:21:00,1787E-3,5C000000,-0724,0825,12213,026.1,045.4,0.477,730.2,01.19,0.508
2014-09-17 03:22:00,1725E-3,5C000000,-0724,0827,12274,026.1,045.4,0.478,730.1,01.19,0.508
2014-09-17 03:23:00,1800E-3,5C000000,-0724,0826,12195,026.1,045.4,0.478,730.1,01.19,0.508
2014-09-17 03:24:00,1764E-3,5C000000,-0724,0827,12291,026.1,045.4,0.478,730.1,01.19,0.508
2014-09-17 03:25:00,1805E-3,5C000000,-0724,0825,12224,026.1,045.4,0.478,730.2,01.19,0.508
2014-09-17 03:26:00,1839E-3,5C000000,-0724,0827,12101,026.1,045.4,0.477,730.1,01.19,0.508
2014-09-17 03:27:00,1841E-3,5C000000,-0724,0826,12324,026.1,045.4,0.478,730.0,01.19,0.508
2014-09-17 03:28:00,1819E-3,5C000000,-0724,0826,12174,026.1,045.4,0.478,730.1,01.19,0.508
2014-09-17 03:29:00,1939E-3,5C000000,-0724,0826,12179,026.1,045.4,0.478,730.1,01.19,0.508
2014-09-17 03:30:00,1825E-3,5C000000,-0724,0826,12104,026.2,045.4,0.478,730.3,01.19,0.508
2014-09-17 03:31:00,1824E-3,5C000000,-0724,0826,12254,026.2,045.4,0.477,730.2,01.19,0.508
2014-09-17 03:32:00,1658E-3,5C000000,-0724,0826,12221,026.2,045.4,0.478,730.2,01.19,0.508
2014-09-17 03:33:00,1738E-3,5C000000,-0724,0828,12335,026.2,045.4,0.478,730.0,01.19,0.508
2014-09-17 03:34:00,1793E-3,5C000000,-0724,0826,12200,026.3,045.4,0.478,730.2,01.19,0.508
2014-09-17 03:35:00,1951E-3,5C000000,-0724,0826,12199,026.2,045.4,0.478,730.2,01.19,0.508
2014-09-17 03:36:00,1788E-3,5C000000,-0724,0826,12303,026.3,045.4,0.478,730.1,01.19,0.508
2014-09-17 03:37:00,1789E-3,5C000000,-0724,0826,12308,026.3,045.4,0.478,730.2,01.19,0.508
2014-09-17 03:38:00,1777E-3,5C000000,-0724,0827,12205,026.3,045.4,0.478,730.3,01.19,0.508
2014-09-17 03:39:00,1916E-3,5C000000,-0724,0825,12258,026.3,045.4,0.477,730.3,01.19,0.508
2014-09-17 03:40:00,1778E-3,5C000000,-0724,0826,12345,026.3,045.4,0.478,730.2,01.19,0.508
2014-09-17 03:41:00,1849E-3,5C000000,-0724,0826,12262,026.3,045.4,0.478,730.2,01.19,0.508
2014-09-17 03:42:00,1721E-3,5C000000,-0724,0826,12172,026.3,045.4,0.477,730.2,01.19,0.508
2014-09-17 03:43:00,1801E-3,5C000000,-0724,0826,12218,026.3,045.4,0.478,730.3,01.19,0.508
2014-09-17 03:44:00,1933E-3,5C000000,-0724,0827,12230,026.3,045.4,0.478,730.1,01.19,0.508
2014-09-17 03:45:00,1917E-3,5C000000,-0724,0826,12387,026.3,045.4,0.477,730.2,01.19,0.508
2014-09-17 03:46:00,1822E-3,5C000000,-0724,0826,12284,026.3,045.4,0.478,730.3,01.19,0.508
2014-09-17 03:47:00,1689E-3,5C000000,-0724,0826,12311,026.3,045.4,0.477,730.3,01.19,0.508
2014-09-17 03:48:00,1930E-3,5C000000,-0724,0826,12158,026.3,045.4,0.478,730.2,01.19,0.508
2014-09-17 03:49:00,1888E-3,5C000000,-0724,0826,12392,026.3,045.4,0.478,730.1,01.19,0.508
2014-09-17 03:50:00,1892E-3,5C000000,-0724,0828,12254,026.3,045.4,0.477,730.1,01.19,0.508
2014-09-17 03:51:00,1752E-3,5C000000,-0724,0826,12200,026.4,045.4,0.478,730.2,01.19,0.508
2014-09-17 03:52:00,1666E-3,5C000000,-0724,0829,12056,026.3,045.4,0.478,730.2,01.19,0.508
2014-09-17 03:53:00,1753E-3,5C000000,-0724,0827,12277,026.3,045.4,0.477,730.3,01.19,0.508
2014-09-17 03:54:00,1738E-3,5C000000,-0724,0827,12276,026.3,045.4,0.478,730.2,01.19,0.508
2014-09-17 03:55:00,1799E-3,5C000000,-0724,0830,12455,026.4,045.4,0.477,730.2,01.19,0.508
2014-09-17 03:56:00,1843E-3,5C000000,-0724,0826,12178,026.3,045.4,0.478,730.3,01.19,0.508
2014-09-17 03:57:00,1779E-3,5C000000,-0724,0830,12380,026.3,045.4,0.478,730.1,01.19,0.508
2014-09-17 03:58:00,1756E-3,5C000000,-0724,0827,12129,026.3,045.4,0.477,730.3,01.19,0.508
2014-09-17 03:59:00,1684E-3,5C000000,-0724,0828,12352,026.3,045.4,0.478,730.1,01.19,0.508
2014-09-17 04:00:00,1826E-3,5C000000,-0724,0829,12380,026.3,045.4,0.478,730.4,01.19,0.508
2014-09-17 04:01:00,1870E-3,5C000000,-0724,0828,12103,026.3,045.4,0.477,730.3,01.19,0.508
2014-09-17 04:02:00,1825E-3,5C000000,-0724,0827,12317,026.3,045.4,0.478,730.4,01.19,0.508
2014-09-17 04:03:00,1702E-3,5C000000,-0724,0828,12400,026.3,045.4,0.477,730.3,01.19,0.508
2014-09-17 04:04:00,1788E-3,5C000000,-0724,0828,11088,026.3,045.4,0.477,730.3,01.19,0.508
2014-09-17 04:05:00,1890E-3,5C000000,-0724,0829,11267,026.3,045.4,0.478,730.4,01.19,0.508
2014-09-17 04:06:00,1644E-3,5C000000,-0724,0828,12289,026.4,045.4,0.477,730.4,01.19,0.508
2014-09-17 04:07:00,1753E-3,5C000000,-0724,0826,12241,026.3,045.4,0.477,730.4,01.19,0.508
2014-09-17 04:08:00,1740E-3,5C000000,-0724,0826,11198,026.3,045.4,0.478,730.4,01.19,0.508
2014-09-17 04:09:00,1855E-3,5C000000,-0724,0828,12432,026.3,045.4,0.477,730.2,01.19,0.508
2014-09-17 04:10:00,1815E-3,5C000000,-0724,0827,12338,026.3,045.4,0.477,730.4,01.19,0.508
2014-09-17 04:11:00,1852E-3,5C000000,-0724,0829,12251,026.3,045.4,0.478,730.4,01.19,0.508
2014-09-17 04:12:00,1835E-3,5C000000,-0724,0827,12345,026.3,045.4,0.477,730.2,01.19,0.508
2014-09-17 04:13:00,1800E-3,5C000000,-0724,0828,12556,026.3,045.4,0.477,730.4,01.19,0.508
2014-09-17 04:14:00,1542E-3,5C000000,-0724,0829,12465,026.3,045.4,0.478,730.3,01.19,0.508
2014-09-17 04:15:00,1681E-3,5C000000,-0724,0834,12588,026.3,045.4,0.478,730.4,01.19,0.508
2014-09-17 04:16:00,1765E-3,5C000000,-0724,0826,12319,026.3,045.4,0.477,730.4,01.19,0.508
2014-09-17 04:17:00,1657E-3,5C000000,-0724,0829,11605,026.3,045.4,0.478,730.4,01.19,0.508
2014-09-17 04:18:00,1761E-3,5C000000,-0724,0830,11238,026.3,045.4,0.478,730.2,01.19,0.508
2014-09-17 04:19:00,1804E-3,5C000000,-0724,0828,12231,026.3,045.4,0.477,730.2,01.19,0.508
2014-09-17 04:20:00,1754E-3,5C000000,-0724,0829,11291,026.3,045.4,0.477,730.4,01.19,0.508